map of PRG home
Great Circle Mapper logo
PRG - Airport
Location
City:  Prague, Czech Republic
Near (Alt.):Praha
Name:Ruzyne
ICAO / IATA:LKPR / PRG

Details
Type:Airport (Aerodrome, Airfield)
Use:Public/Civil, International (customs port of entry)
Latitude:5006'03"N (50.100833)
Longitude:1415'36"E (14.260000)
Datum:other
Elevation:1247 ft (380 m)
Variation:3.58E (WMM2015 magnetic declination)
0.13 annual change
Runways:3
Longest:12189 × 148 ft (3715 × 45 m), paved

Time
Time Zone:UTC+1 (DST+2)
Local Time:

Weather
METAR:LKPR 051130Z 27012KT 250V310 9999 BKN048 17/06 Q1013 NOSIG
TAF:LKPR 051100Z 0512/0618 25010KT CAVOK
TEMPO 0512/0606 27010G22KT 9999 SCT040
BECMG 0606/0608 9999 BKN040
TEMPO 0608/0618 27015G30KT BKN030 PROB40
TEMPO 0609/0618 27020G40KT -SHRA BKN020

Related Locations
Nearby:
Farthest:CHT: 11769 mi / 18940 km
Waitangi [Tuuta], Chatham Islands, NZ

Find:

   beyond  
but within

Other Information
Maps:
NOTAMs:
Links:
Sources:

  
flag of Czech Republic
flag of Prague
  

Sectional Chart

Flight Planning
at skyvector.com

Satellite Image

Google Maps Satellite view

 

Copyright © 2004-2015 Karl L. Swartz. All rights reserved.
The Great Circle Mapper name and logo are trademarks of the Great Circle Mapper.
All other trademarks mentioned herein belong to their respective owners.
Please see credits for attibutions and further copyright information.

  Follow gcmap on Facebook Follow gcmap on Twitter Follow gcmap on Google+

hCard Microformat

Geo Microformat